TimeCDT,TemperatureF,Dew PointF,Humidity,Sea Level PressureIn,VisibilityMPH,Wind Direction,Wind SpeedMPH,Gust SpeedMPH,PrecipitationIn,Events,Conditions,WindDirDegrees,DateUTC
12:53 AM,73.0,71.1,93,30.01,5.0,ENE,4.6,-,N/A,,Clear,60,2013-06-22 05:53:00
1:53 AM,72.0,71.1,97,30.01,6.0,Calm,Calm,-,N/A,,Clear,0,2013-06-22 06:53:00
2:53 AM,72.0,70.0,93,30.00,4.0,Calm,Calm,-,N/A,,Clear,0,2013-06-22 07:53:00
3:53 AM,71.1,70.0,96,30.00,4.0,East,3.5,-,N/A,,Clear,100,2013-06-22 08:53:00
4:53 AM,71.1,70.0,96,30.00,2.5,NE,3.5,-,N/A,,Clear,40,2013-06-22 09:53:00
5:15 AM,71.1,70.0,96,30.02,4.0,ENE,4.6,-,N/A,,Clear,70,2013-06-22 10:15:00
5:53 AM,72.0,70.0,93,30.01,4.0,East,4.6,-,N/A,,Clear,80,2013-06-22 10:53:00
6:06 AM,71.1,70.0,96,30.03,2.0,East,3.5,-,N/A,,Clear,90,2013-06-22 11:06:00
6:53 AM,72.0,71.1,97,30.03,2.5,Calm,Calm,-,N/A,,Clear,0,2013-06-22 11:53:00
7:01 AM,73.0,71.1,93,30.05,3.0,Calm,Calm,-,N/A,,Clear,0,2013-06-22 12:01:00
7:53 AM,75.0,73.0,94,30.04,4.0,Calm,Calm,-,N/A,,Clear,0,2013-06-22 12:53:00
8:53 AM,79.0,73.0,82,30.04,7.0,SW,3.5,-,N/A,,Clear,230,2013-06-22 13:53:00
9:53 AM,82.9,73.9,74,30.04,8.0,West,4.6,-,N/A,,Clear,270,2013-06-22 14:53:00
10:53 AM,86.0,73.9,67,30.05,9.0,Calm,Calm,-,N/A,,Clear,0,2013-06-22 15:53:00
11:53 AM,88.0,73.0,61,30.05,9.0,South,6.9,-,N/A,,Partly Cloudy,170,2013-06-22 16:53:00
12:53 PM,89.1,73.0,59,30.04,9.0,SE,8.1,-,N/A,,Partly Cloudy,130,2013-06-22 17:53:00
1:53 PM,88.0,72.0,59,30.02,10.0,South,8.1,-,N/A,,Scattered Clouds,180,2013-06-22 18:53:00
2:53 PM,90.0,73.0,57,30.01,10.0,ESE,8.1,-,N/A,,Scattered Clouds,110,2013-06-22 19:53:00
3:53 PM,91.0,71.1,52,29.98,10.0,Variable,6.9,-,N/A,,Partly Cloudy,0,2013-06-22 20:53:00
4:53 PM,91.0,73.0,55,29.96,10.0,South,6.9,-,N/A,,Clear,190,2013-06-22 21:53:00
5:53 PM,91.0,71.1,52,29.94,10.0,SE,10.4,-,N/A,,Partly Cloudy,130,2013-06-22 22:53:00
6:53 PM,90.0,72.0,55,29.91,10.0,SSE,4.6,-,N/A,,Clear,150,2013-06-22 23:53:00
7:53 PM,87.1,71.1,59,29.92,10.0,SE,3.5,-,N/A,,Clear,140,2013-06-23 00:53:00
8:53 PM,82.0,72.0,71,29.93,10.0,SE,3.5,-,N/A,,Clear,130,2013-06-23 01:53:00
9:53 PM,80.1,73.0,79,29.94,10.0,ESE,4.6,-,N/A,,Clear,110,2013-06-23 02:53:00
10:53 PM,80.1,73.0,79,29.96,10.0,ESE,3.5,-,N/A,,Clear,110,2013-06-23 03:53:00
11:53 PM,79.0,72.0,79,29.96,9.0,ESE,5.8,-,N/A,,Clear,120,2013-06-23 04:53:00